timestamp,wind_dir_avg,wind_spd_avg,wind_spd_max_dir,wind_spd_gust,battery_voltage,lat,long
2021-11-24 00:04:01+00:00,150.0,11.14,154.0,12.52,12.57,47.59359,-54.27349
2021-11-24 00:14:01+00:00,149.0,11.49,162.0,13.96,12.57,47.59359,-54.27349
2021-11-24 00:24:01+00:00,147.0,11.41,148.0,12.53,12.57,47.59359,-54.27349
2021-11-24 00:34:01+00:00,143.0,14.83,137.0,19.92,12.57,47.59359,-54.27349
2021-11-24 00:44:01+00:00,145.0,12.78,132.0,18.4,12.57,47.59359,-54.27349
2021-11-24 00:54:01+00:00,145.0,13.0,135.0,18.93,12.57,47.59359,-54.27349
2021-11-24 01:04:01+00:00,142.0,12.62,133.0,14.91,12.57,47.59359,-54.27349
2021-11-24 01:14:01+00:00,141.0,12.37,142.0,15.98,12.57,47.59359,-54.27349
2021-11-24 01:24:01+00:00,143.0,12.9,132.0,16.44,12.57,47.59359,-54.27349
2021-11-24 01:34:01+00:00,138.0,13.47,122.0,16.68,12.57,47.59359,-54.27349
2021-11-24 01:44:01+00:00,149.0,13.81,141.0,15.93,12.57,47.59359,-54.27349
2021-11-24 01:54:01+00:00,152.0,11.28,156.0,12.58,12.57,47.59359,-54.27349
2021-11-24 02:04:01+00:00,154.0,12.01,156.0,13.94,12.57,47.59359,-54.27349
2021-11-24 02:14:01+00:00,153.0,13.08,160.0,14.89,12.57,47.59359,-54.27349
2021-11-24 02:24:01+00:00,154.0,13.31,160.0,14.95,12.57,47.59359,-54.27349
2021-11-24 02:34:01+00:00,154.0,11.43,160.0,12.96,12.57,47.59359,-54.27349
2021-11-24 02:44:01+00:00,150.0,14.37,143.0,16.24,12.57,47.59359,-54.27349
2021-11-24 02:54:01+00:00,153.0,12.66,160.0,14.44,12.57,47.59359,-54.27349
2021-11-24 03:04:01+00:00,150.0,10.76,151.0,13.57,12.57,47.59359,-54.27349
2021-11-24 03:14:01+00:00,153.0,11.61,155.0,13.08,12.57,47.59359,-54.27349
2021-11-24 03:24:01+00:00,148.0,12.54,146.0,14.49,12.57,47.59359,-54.27349
2021-11-24 03:34:01+00:00,150.0,14.08,148.0,16.08,12.57,47.59359,-54.27349
2021-11-24 03:44:01+00:00,147.0,13.09,142.0,15.85,12.57,47.59359,-54.27349
2021-11-24 03:54:01+00:00,151.0,11.8,144.0,14.67,12.57,47.59359,-54.27349
2021-11-24 04:04:01+00:00,151.0,14.31,145.0,16.22,12.57,47.59359,-54.27349
2021-11-24 04:14:01+00:00,148.0,13.11,149.0,15.56,12.49,47.59359,-54.27349
2021-11-24 04:24:01+00:00,149.0,14.52,140.0,17.52,12.49,47.59359,-54.27349
2021-11-24 04:34:01+00:00,146.0,15.5,143.0,19.93,12.49,47.59359,-54.27349
2021-11-24 04:44:01+00:00,153.0,13.25,152.0,15.76,12.49,47.59359,-54.27349
2021-11-24 04:54:01+00:00,146.0,13.65,138.0,16.58,12.49,47.59359,-54.27349
2021-11-24 05:04:01+00:00,152.0,12.74,156.0,14.67,12.49,47.59359,-54.27349
2021-11-24 05:14:01+00:00,156.0,13.22,154.0,15.77,12.49,47.59359,-54.27349
2021-11-24 05:24:01+00:00,147.0,13.1,147.0,14.61,12.49,47.59359,-54.27349
2021-11-24 05:34:01+00:00,151.0,12.99,143.0,15.64,12.49,47.59359,-54.27349
2021-11-24 05:44:01+00:00,150.0,12.46,161.0,14.84,12.49,47.59359,-54.27349
2021-11-24 05:54:01+00:00,153.0,12.16,160.0,14.25,12.49,47.59359,-54.27349
2021-11-24 06:04:01+00:00,151.0,13.66,143.0,15.49,12.49,47.59359,-54.27349
2021-11-24 06:14:01+00:00,157.0,13.12,158.0,15.56,12.49,47.59359,-54.27349
2021-11-24 06:24:01+00:00,157.0,12.63,164.0,14.6,12.49,47.59359,-54.27349
2021-11-24 06:34:01+00:00,156.0,13.35,154.0,14.48,12.49,47.59359,-54.27349
2021-11-24 06:44:01+00:00,157.0,13.08,156.0,14.68,12.49,47.59359,-54.27349
2021-11-24 06:54:01+00:00,156.0,13.75,148.0,14.99,12.49,47.59359,-54.27349
2021-11-24 07:04:01+00:00,153.0,12.25,137.0,13.62,12.49,47.59359,-54.27349
2021-11-24 07:14:00+00:00,153.0,12.86,147.0,15.6,12.49,47.59359,-54.27349
2021-11-24 07:24:00+00:00,150.0,11.57,148.0,12.97,12.49,47.59359,-54.27349
2021-11-24 07:34:00+00:00,144.0,13.14,143.0,14.56,12.49,47.59359,-54.27349
2021-11-24 07:44:00+00:00,147.0,12.29,138.0,14.37,12.49,47.59359,-54.27349
2021-11-24 07:54:00+00:00,156.0,11.53,145.0,13.8,12.49,47.59359,-54.27349
2021-11-24 08:04:00+00:00,160.0,10.51,162.0,11.56,12.49,47.59359,-54.27349
2021-11-24 08:14:01+00:00,141.0,13.66,144.0,15.89,12.49,47.59359,-54.27349
2021-11-24 08:24:01+00:00,139.0,12.68,139.0,13.98,12.49,47.59359,-54.27349
2021-11-24 08:34:01+00:00,140.0,13.83,142.0,15.35,12.49,47.59359,-54.27349
2021-11-24 08:44:01+00:00,135.0,13.15,137.0,14.46,12.49,47.59359,-54.27349
2021-11-24 08:54:01+00:00,134.0,12.82,136.0,14.47,12.49,47.59359,-54.27349
2021-11-24 09:04:01+00:00,134.0,13.28,135.0,14.89,12.49,47.59359,-54.27349
2021-11-24 09:14:00+00:00,134.0,13.71,137.0,14.44,12.41,47.59359,-54.27349
2021-11-24 09:24:00+00:00,136.0,13.08,134.0,14.46,12.41,47.59359,-54.27349
2021-11-24 09:34:00+00:00,137.0,13.26,139.0,14.9,12.41,47.59359,-54.27349
2021-11-24 09:44:00+00:00,137.0,14.06,137.0,15.06,12.41,47.59359,-54.27349
2021-11-24 09:54:00+00:00,139.0,14.53,138.0,16.14,12.41,47.59359,-54.27349
2021-11-24 10:04:00+00:00,136.0,14.47,139.0,15.64,12.41,47.59359,-54.27349
2021-11-24 10:14:01+00:00,139.0,14.81,140.0,16.29,12.41,47.59359,-54.27349
2021-11-24 10:24:01+00:00,138.0,14.75,138.0,15.65,12.41,47.59359,-54.27349
2021-11-24 10:34:01+00:00,133.0,12.85,132.0,14.57,12.41,47.59359,-54.27349
2021-11-24 10:44:01+00:00,135.0,12.86,141.0,15.62,12.41,47.59359,-54.27349
2021-11-24 10:54:01+00:00,134.0,13.91,137.0,15.24,12.41,47.59359,-54.27349
2021-11-24 11:04:01+00:00,139.0,14.98,144.0,17.78,12.41,47.59359,-54.27349
2021-11-24 11:14:01+00:00,136.0,13.72,141.0,14.91,12.41,47.59359,-54.27349
2021-11-24 11:24:01+00:00,132.0,13.43,132.0,14.43,12.41,47.59359,-54.27349
2021-11-24 11:34:01+00:00,132.0,13.28,134.0,14.75,12.41,47.59359,-54.27349
2021-11-24 11:44:01+00:00,131.0,13.27,135.0,14.17,12.41,47.59359,-54.27349
2021-11-24 11:54:01+00:00,131.0,12.77,134.0,14.75,12.41,47.59359,-54.27349
2021-11-24 12:04:01+00:00,127.0,12.17,128.0,13.2,12.41,47.59359,-54.27349
2021-11-24 12:14:01+00:00,130.0,12.24,132.0,14.35,12.57,47.59359,-54.27349
2021-11-24 12:24:01+00:00,132.0,10.0,128.0,12.15,12.57,47.59359,-54.27349
2021-11-24 12:34:01+00:00,124.0,10.69,123.0,12.4,12.57,47.59359,-54.27349
2021-11-24 12:44:01+00:00,135.0,7.87,119.0,10.99,12.57,47.59359,-54.27349
2021-11-24 12:54:01+00:00,131.0,7.99,130.0,11.81,12.57,47.59359,-54.27349
2021-11-24 13:04:01+00:00,141.0,7.95,126.0,10.95,12.57,47.59359,-54.27349
2021-11-24 13:14:01+00:00,137.0,9.46,129.0,12.37,12.65,47.59359,-54.27349
2021-11-24 13:24:01+00:00,131.0,9.88,122.0,12.09,12.65,47.59359,-54.27349
2021-11-24 13:34:01+00:00,138.0,9.89,127.0,12.7,12.65,47.59359,-54.27349
2021-11-24 13:44:01+00:00,141.0,7.36,125.0,10.91,12.65,47.59359,-54.27349
2021-11-24 13:54:01+00:00,139.0,7.93,127.0,11.08,12.65,47.59359,-54.27349
2021-11-24 14:04:01+00:00,141.0,7.18,129.0,9.79,12.65,47.59359,-54.27349
2021-11-24 14:14:00+00:00,134.0,8.3,125.0,11.38,12.65,47.59359,-54.27349
2021-11-24 14:24:00+00:00,127.0,11.55,125.0,12.72,12.65,47.59359,-54.27349
2021-11-24 14:34:00+00:00,130.0,9.56,128.0,11.95,12.65,47.59359,-54.27349
2021-11-24 14:44:00+00:00,126.0,11.34,125.0,13.0,12.65,47.59359,-54.27349
2021-11-24 14:54:00+00:00,137.0,10.68,137.0,13.29,12.65,47.59359,-54.27349
2021-11-24 15:04:00+00:00,147.0,6.03,149.0,7.48,12.65,47.59359,-54.27349
2021-11-24 15:14:01+00:00,140.0,7.4,120.0,12.41,13.05,47.59359,-54.27349
2021-11-24 15:24:01+00:00,146.0,6.29,148.0,7.41,13.05,47.59359,-54.27349
2021-11-24 15:34:01+00:00,132.0,9.64,124.0,12.66,13.05,47.59359,-54.27349
2021-11-24 15:44:01+00:00,136.0,8.91,125.0,12.14,13.05,47.59359,-54.27349
2021-11-24 15:54:01+00:00,139.0,10.46,133.0,13.57,13.05,47.59359,-54.27349
2021-11-24 16:04:01+00:00,132.0,10.73,130.0,13.76,13.05,47.59359,-54.27349
2021-11-24 16:14:00+00:00,128.0,11.14,126.0,13.21,13.68,47.59359,-54.27349
2021-11-24 16:24:00+00:00,139.0,9.72,129.0,12.29,13.68,47.59359,-54.27349
2021-11-24 16:34:00+00:00,132.0,9.47,125.0,12.41,13.68,47.59359,-54.27349
2021-11-24 16:44:00+00:00,146.0,7.98,133.0,9.85,13.68,47.59359,-54.27349
2021-11-24 16:54:00+00:00,149.0,8.29,132.0,11.6,13.68,47.59359,-54.27349
2021-11-24 17:04:00+00:00,129.0,5.89,112.0,9.52,13.68,47.59359,-54.27349
2021-11-24 17:14:00+00:00,130.0,6.13,116.0,8.4,13.92,47.59359,-54.27349
2021-11-24 17:24:00+00:00,135.0,7.99,124.0,11.63,13.92,47.59359,-54.27349
2021-11-24 17:34:00+00:00,137.0,7.43,115.0,10.6,13.92,47.59359,-54.27349
2021-11-24 17:44:00+00:00,126.0,6.61,115.0,10.82,13.92,47.59359,-54.27349
2021-11-24 17:54:00+00:00,128.0,6.17,110.0,10.05,13.92,47.59359,-54.27349
2021-11-24 18:04:00+00:00,123.0,5.67,113.0,8.84,13.92,47.59359,-54.27349
2021-11-24 18:14:01+00:00,131.0,9.8,123.0,11.69,13.29,47.59359,-54.27349
2021-11-24 18:24:01+00:00,117.0,8.25,114.0,10.78,13.29,47.59359,-54.27349
2021-11-24 18:34:01+00:00,132.0,7.27,129.0,11.62,13.29,47.59359,-54.27349
2021-11-24 18:44:01+00:00,122.0,8.72,123.0,11.56,13.29,47.59359,-54.27349
2021-11-24 18:54:01+00:00,135.0,6.71,115.0,9.78,13.29,47.59359,-54.27349
2021-11-24 19:04:01+00:00,119.0,9.31,112.0,11.41,13.29,47.59359,-54.27349
2021-11-24 19:14:00+00:00,116.0,9.93,113.0,11.43,13.05,47.59359,-54.27349
2021-11-24 19:24:00+00:00,124.0,9.59,126.0,11.55,13.05,47.59359,-54.27349
2021-11-24 19:34:00+00:00,124.0,8.53,124.0,11.57,13.05,47.59359,-54.27349
2021-11-24 19:44:00+00:00,122.0,9.0,114.0,11.47,13.05,47.59359,-54.27349
2021-11-24 19:54:00+00:00,133.0,5.47,137.0,6.21,13.05,47.59359,-54.27349
2021-11-24 20:04:00+00:00,116.0,8.89,112.0,11.18,13.05,47.59359,-54.27349
2021-11-24 20:14:01+00:00,114.0,6.87,114.0,11.34,12.73,47.59359,-54.27349
2021-11-24 20:24:01+00:00,128.0,4.16,137.0,5.25,12.73,47.59359,-54.27349
2021-11-24 20:34:01+00:00,126.0,7.14,118.0,10.67,12.73,47.59359,-54.27349
2021-11-24 20:44:01+00:00,136.0,5.6,121.0,9.05,12.73,47.59359,-54.27349
2021-11-24 20:54:01+00:00,148.0,6.03,147.0,7.34,12.73,47.59359,-54.27349
2021-11-24 21:04:01+00:00,129.0,4.21,133.0,5.05,12.73,47.59359,-54.27349
2021-11-24 21:14:01+00:00,126.0,5.24,123.0,6.99,12.65,47.59359,-54.27349
2021-11-24 21:24:01+00:00,101.0,2.89,129.0,4.87,12.65,47.59359,-54.27349
2021-11-24 21:34:01+00:00,118.0,3.65,126.0,5.45,12.65,47.59359,-54.27349
2021-11-24 21:44:01+00:00,123.0,4.39,127.0,5.6,12.65,47.59359,-54.27349
2021-11-24 21:54:01+00:00,102.0,3.05,99.0,6.13,12.65,47.59359,-54.27349
2021-11-24 22:04:01+00:00,81.0,2.7,74.0,5.63,12.65,47.59359,-54.27349
2021-11-24 22:14:01+00:00,89.0,2.69,88.0,3.8,12.65,47.59359,-54.27349
2021-11-24 22:24:01+00:00,77.0,3.27,79.0,4.09,12.65,47.59359,-54.27349
2021-11-24 22:34:01+00:00,74.0,3.6,70.0,4.17,12.65,47.59359,-54.27349
2021-11-24 22:44:01+00:00,105.0,3.13,128.0,4.98,12.65,47.59359,-54.27349
2021-11-24 22:54:01+00:00,118.0,4.27,110.0,6.67,12.65,47.59359,-54.27349
2021-11-24 23:04:01+00:00,118.0,8.24,117.0,11.2,12.65,47.59359,-54.27349
2021-11-24 23:14:01+00:00,114.0,5.65,112.0,10.66,12.57,47.59359,-54.27349
2021-11-24 23:24:01+00:00,98.0,2.12,117.0,4.15,12.57,47.59359,-54.27349
2021-11-24 23:34:01+00:00,103.0,3.03,104.0,10.37,12.57,47.59359,-54.27349
2021-11-24 23:44:01+00:00,97.0,3.75,101.0,9.25,12.57,47.59359,-54.27349
2021-11-24 23:54:01+00:00,97.0,3.23,96.0,8.47,12.57,47.59359,-54.27349
